| time (UTC) | temp C | wind direction | speed KPH | gust KPH | rain 1hr cm | rain 24hr cm | rain mn cm | humidity % | barometer mb |
| 20260904164017 | 16 | 138 | 9.7 | 11.3 | 0.00 | 0.51 | 0.51 | 43 | 1076.1 |
| 20260904163017 | 15 | 134 | 9.7 | 12.9 | 0.00 | 0.51 | 0.51 | 42 | 1075.4 |
| 20260904162017 | 15 | 131 | 9.7 | 12.9 | 0.00 | 0.51 | 0.51 | 42 | 1074.6 |
| 20260904161017 | 15 | 127 | 9.7 | 12.9 | 0.00 | 0.51 | 0.51 | 41 | 1073.9 |
| 20260904160017 | 14 | 123 | 11.3 | 12.9 | 0.00 | 0.51 | 0.51 | 41 | 1073.1 |
| 20260904155017 | 13 | 119 | 11.3 | 12.9 | 0.00 | 0.51 | 0.51 | 40 | 1072.4 |
| 20260904154022 | 27 | 203 | 11.3 | 24.1 | 0.00 | 0.10 | 0.00 | 53 | 1013.0 |
| 20260904154017 | 13 | 116 | 11.3 | 12.9 | 0.00 | 0.51 | 0.51 | 39 | 1071.7 |
| 20260904153017 | 12 | 112 | 11.3 | 12.9 | 0.00 | 0.51 | 0.51 | 39 | 1070.9 |
| 20260904152017 | 12 | 108 | 11.3 | 12.9 | 0.00 | 0.51 | 0.51 | 38 | 1070.2 |
| 20260904151041 | 27 | 203 | 16.1 | 25.7 | 0.00 | 0.15 | 0.00 | 52 | 1013.4 |
| 20260904151037 | 12 | 105 | 11.3 | 14.5 | 0.00 | 0.51 | 0.51 | 37 | 1069.5 |
| 20260904150017 | 11 | 101 | 11.3 | 14.5 | 0.00 | 0.51 | 0.51 | 37 | 1068.8 |
| 20260904145017 | 27 | 225 | 14.5 | 24.1 | 0.00 | 0.25 | 0.00 | 54 | 1013.6 |
| 20260904144017 | 10 | 94 | 11.3 | 14.5 | 0.00 | 0.51 | 0.51 | 36 | 1067.4 |
| 20260904143017 | 10 | 91 | 11.3 | 14.5 | 0.00 | 0.51 | 0.51 | 35 | 1066.7 |
| 20260904142017 | 9 | 87 | 12.9 | 14.5 | 0.00 | 0.51 | 0.51 | 35 | 1066.1 |
| 20260904141017 | 8 | 84 | 12.9 | 14.5 | 0.00 | 0.51 | 0.51 | 34 | 1065.4 |
| 20260904140017 | 8 | 81 | 12.9 | 14.5 | 0.00 | 0.51 | 0.51 | 33 | 1064.8 |
| 20260904135017 | 8 | 78 | 12.9 | 14.5 | 0.00 | 0.51 | 0.51 | 33 | 1064.1 |
| 20260904134037 | 7 | 74 | 12.9 | 16.1 | 0.00 | 0.51 | 0.51 | 32 | 1063.5 |
| 20260904133018 | 27 | 203 | 12.9 | 27.4 | 0.00 | 0.48 | 0.00 | 56 | 1014.4 |
| 20260904132018 | 27 | 225 | 11.3 | 22.5 | 0.00 | 0.51 | 0.00 | 56 | 1014.5 |
| 20260904131018 | 27 | 203 | 14.5 | 30.6 | 0.00 | 0.53 | 0.00 | 56 | 1014.7 |
| 20260904130017 | 6 | 62 | 12.9 | 16.1 | 0.00 | 0.51 | 0.51 | 30 | 1061.0 |
| 20260904125018 | 26 | 225 | 14.5 | 24.1 | 0.00 | 0.53 | 0.00 | 57 | 1015.0 |
| 20260904124017 | 5 | 56 | 12.9 | 16.1 | 0.00 | 0.51 | 0.51 | 29 | 1059.9 |
| 20260904123017 | 26 | 225 | 14.5 | 25.7 | 0.00 | 0.53 | 0.00 | 59 | 1015.2 |
| 20260904122018 | 26 | 225 | 11.3 | 25.7 | 0.00 | 0.53 | 0.00 | 57 | 1015.8 |
| 20260904121017 | 27 | 203 | 12.9 | 24.1 | 0.00 | 0.53 | 0.00 | 57 | 1016.0 |
| 20260904120017 | 3 | 45 | 14.5 | 17.7 | 0.00 | 0.51 | 0.51 | 28 | 1057.7 |
| 20260904115018 | 26 | 270 | 12.9 | 22.5 | 0.00 | 0.53 | 0.00 | 61 | 1016.0 |
| 20260904114017 | 2 | 40 | 14.5 | 17.7 | 0.00 | 0.51 | 0.51 | 27 | 1056.7 |
| 20260904113018 | 26 | 225 | 12.9 | 22.5 | 0.00 | 0.53 | 0.00 | 62 | 1016.2 |
| 20260904112018 | 25 | 203 | 16.1 | 33.8 | 0.00 | 0.53 | 0.00 | 63 | 1016.2 |
| 20260904111017 | 1 | 33 | 14.5 | 17.7 | 0.00 | 0.51 | 0.51 | 26 | 1055.3 |
| 20260904110037 | 1 | 31 | 14.5 | 17.7 | 0.00 | 0.51 | 0.51 | 25 | 1054.9 |
| 20260904105017 | 24 | 225 | 14.5 | 33.8 | 0.00 | 0.53 | 0.00 | 64 | 1016.3 |
| 20260904104018 | 24 | 225 | 16.1 | 27.4 | 0.00 | 0.53 | 0.00 | 65 | 1016.4 |
| 20260904104016 | 0 | 27 | 14.5 | 17.7 | 0.00 | 0.51 | 0.51 | 24 | 1054.0 |
| 20260904103017 | 25 | 270 | 12.9 | 30.6 | 0.00 | 0.53 | 0.00 | 67 | 1016.5 |
| 20260904102017 | 24 | 225 | 14.5 | 29.0 | 0.00 | 0.53 | 0.00 | 69 | 1016.6 |
| 20260904101017 | 0 | 21 | 14.5 | 17.7 | 0.00 | 0.51 | 0.51 | 23 | 1052.9 |
| 20260904100037 | 0 | 19 | 14.5 | 17.7 | 0.00 | 0.51 | 0.51 | 23 | 1052.5 |
| 20260904095017 | 23 | 225 | 11.3 | 20.9 | 0.00 | 0.53 | 0.00 | 76 | 1017.3 |
| 20260904094017 | 22 | 203 | 9.7 | 17.7 | 0.00 | 0.53 | 0.00 | 77 | 1017.3 |
| 20260904093017 | 22 | 180 | 11.3 | 20.9 | 0.00 | 0.53 | 0.00 | 80 | 1017.6 |
| 20260904092019 | 21 | 203 | 9.7 | 20.9 | 0.00 | 0.53 | 0.00 | 83 | 1017.6 |
| 20260904092017 | 0 | 13 | 16.1 | 19.3 | 0.00 | 0.51 | 0.51 | 22 | 1051.3 |
| 20260904091018 | 20 | 203 | 9.7 | 16.1 | 0.00 | 0.53 | 0.00 | 85 | 1017.7 |
| 20260904090017 | 20 | 180 | 6.4 | 12.9 | 0.00 | 0.53 | 0.00 | 87 | 1017.7 |
| 20260904085037 | -1 | 9 | 16.1 | 19.3 | 0.00 | 0.51 | 0.51 | 21 | 1050.5 |
| 20260904085017 | 19 | 180 | 6.4 | 12.9 | 0.00 | 0.53 | 0.00 | 89 | 1018.0 |
| 20260904084017 | 18 | 225 | 6.4 | 9.7 | 0.00 | 0.53 | 0.00 | 90 | 1018.0 |
| 20260904083017 | 18 | 203 | 9.7 | 17.7 | 0.00 | 0.53 | 0.00 | 91 | 1017.9 |
| 20260904082017 | -1 | 5 | 16.1 | 19.3 | 0.00 | 0.51 | 0.51 | 21 | 1049.8 |
| 20260904081017 | 17 | 203 | 8.0 | 14.5 | 0.00 | 0.53 | 0.00 | 93 | 1018.0 |
| 20260904080017 | 17 | 203 | 6.4 | 11.3 | 0.00 | 0.53 | 0.00 | 94 | 1018.2 |
| 20260904075017 | 17 | 203 | 6.4 | 8.0 | 0.00 | 0.53 | 0.00 | 94 | 1018.1 |
| 20260904074017 | -1 | 2 | 16.1 | 19.3 | 0.00 | 0.51 | 0.51 | 20 | 1049.2 |
| 20260904073037 | 0 | 2 | 16.1 | 19.3 | 0.00 | 0.51 | 0.51 | 20 | 1049.1 |
| 20260904072017 | 16 | 180 | 6.4 | 9.7 | 0.00 | 0.53 | 0.00 | 94 | 1018.2 |
| 20260904071037 | 16 | 180 | 6.4 | 9.7 | 0.00 | 0.53 | 0.00 | 94 | 1018.2 |
| 20260904070017 | 0 | 0 | 16.1 | 19.3 | 0.00 | 0.51 | 0.51 | 20 | 1048.9 |
| 20260904065018 | 16 | 180 | 4.8 | 12.9 | 0.00 | 0.53 | 0.00 | 95 | 1018.2 |
| 20260904064017 | 0 | 0 | 16.1 | 19.3 | 0.00 | 0.51 | 0.51 | 20 | 1048.8 |
| 20260904063017 | 15 | 180 | 4.8 | 8.0 | 0.00 | 0.53 | 0.00 | 95 | 1018.1 |
| 20260904062017 | 15 | 158 | 1.6 | 6.4 | 0.00 | 0.53 | 0.00 | 95 | 1018.1 |
| 20260904061017 | 1 | 0 | 16.1 | 19.3 | 0.00 | 0.51 | 0.51 | 20 | 1048.8 |
| 20260904060017 | 1 | 0 | 16.1 | 19.3 | 0.00 | 0.51 | 0.51 | 20 | 1048.8 |
| 20260904055017 | 1 | 1 | 16.1 | 19.3 | 0.00 | 0.51 | 0.51 | 20 | 1048.9 |
| 20260904054017 | 14 | 0.0 | 3.2 | 0.00 | 0.53 | 0.00 | 95 | 1018.1 | |
| 20260904053017 | 13 | 0.0 | 1.6 | 0.00 | 0.53 | 0.00 | 95 | 1018.3 | |
| 20260904052017 | 2 | 2 | 16.1 | 19.3 | 0.00 | 0.51 | 0.51 | 20 | 1049.2 |
| 20260904051017 | 2 | 3 | 16.1 | 19.3 | 0.00 | 0.51 | 0.51 | 20 | 1049.3 |
| 20260904050017 | 3 | 3 | 16.1 | 19.3 | 0.00 | 0.51 | 0.51 | 21 | 1049.4 |
| 20260904045017 | 3 | 4 | 16.1 | 19.3 | 0.00 | 0.51 | 0.51 | 21 | 1049.6 |
| 20260904044017 | 3 | 5 | 16.1 | 19.3 | 0.00 | 0.51 | 0.51 | 21 | 1049.8 |
| 20260904043017 | 4 | 6 | 16.1 | 19.3 | 0.00 | 0.51 | 0.51 | 21 | 1049.9 |
| 20260904042017 | 5 | 7 | 16.1 | 19.3 | 0.00 | 0.51 | 0.51 | 21 | 1050.2 |
| 20260904041037 | 5 | 8 | 16.1 | 19.3 | 0.00 | 0.51 | 0.51 | 21 | 1050.4 |
| 20260904040017 | 5 | 9 | 16.1 | 19.3 | 0.00 | 0.51 | 0.51 | 22 | 1050.6 |
| 20260904035017 | 6 | 11 | 16.1 | 19.3 | 0.00 | 0.51 | 0.51 | 22 | 1050.9 |
| 20260904034017 | 13 | 158 | 1.6 | 4.8 | 0.00 | 0.53 | 0.00 | 95 | 1018.4 |
| 20260904033017 | 7 | 13 | 16.1 | 19.3 | 0.00 | 0.51 | 0.51 | 22 | 1051.4 |
| 20260904032017 | 7 | 15 | 16.1 | 19.3 | 0.00 | 0.51 | 0.51 | 22 | 1051.7 |
| 20260904031017 | 7 | 16 | 16.1 | 17.7 | 0.00 | 0.51 | 0.51 | 23 | 1052.0 |
| 20260904030017 | 8 | 18 | 14.5 | 17.7 | 0.00 | 0.51 | 0.51 | 23 | 1052.4 |
| 20260904025017 | 8 | 20 | 14.5 | 17.7 | 0.00 | 0.51 | 0.51 | 23 | 1052.7 |
| 20260904024017 | 9 | 22 | 14.5 | 17.7 | 0.00 | 0.51 | 0.51 | 24 | 1053.1 |
| 20260904023017 | 10 | 24 | 14.5 | 17.7 | 0.00 | 0.51 | 0.51 | 24 | 1053.5 |
| 20260904022037 | 10 | 26 | 14.5 | 17.7 | 0.00 | 0.51 | 0.51 | 24 | 1053.9 |
| 20260904021017 | 11 | 28 | 14.5 | 17.7 | 0.00 | 0.51 | 0.51 | 25 | 1054.3 |
| 20260904020017 | 11 | 30 | 14.5 | 17.7 | 0.00 | 0.51 | 0.51 | 25 | 1054.7 |
| 20260904015016 | 12 | 0.0 | 1.6 | 0.00 | 0.53 | 0.00 | 94 | 1019.1 | |
| 20260904014057 | 12 | 34 | 14.5 | 17.7 | 0.05 | 0.51 | 0.51 | 26 | 1055.6 |
| 20260904013017 | 12 | 37 | 14.5 | 17.7 | 0.08 | 0.51 | 0.51 | 26 | 1056.0 |
| 20260904012017 | 13 | 39 | 14.5 | 17.7 | 0.10 | 0.51 | 0.51 | 27 | 1056.5 |
| 20260904011018 | 13 | 0.0 | 0.0 | 0.00 | 0.53 | 0.00 | 94 | 1019.4 | |
| 20260904010017 | 13 | 44 | 14.5 | 17.7 | 0.15 | 0.51 | 0.51 | 27 | 1057.5 |
| 20260904005017 | 14 | 47 | 14.5 | 16.1 | 0.15 | 0.51 | 0.48 | 28 | 1058.0 |
| 20260904004017 | 15 | 49 | 14.5 | 16.1 | 0.15 | 0.51 | 0.46 | 28 | 1058.5 |
| 20260904003037 | 15 | 52 | 14.5 | 16.1 | 0.18 | 0.51 | 0.43 | 29 | 1059.1 |
| 20260904002017 | 16 | 55 | 12.9 | 16.1 | 0.18 | 0.51 | 0.41 | 29 | 1059.6 |
| 20260904001017 | 16 | 58 | 12.9 | 16.1 | 0.18 | 0.51 | 0.38 | 30 | 1060.2 |
| 20260904000017 | 16 | 61 | 12.9 | 16.1 | 0.18 | 0.51 | 0.36 | 30 | 1060.8 |
| 20260903235017 | 17 | 64 | 12.9 | 16.1 | 0.18 | 0.51 | 0.33 | 31 | 1061.4 |
| 20260903234037 | 17 | 67 | 12.9 | 16.1 | 0.18 | 0.51 | 0.30 | 31 | 1062.0 |
| 20260903233017 | 17 | 70 | 12.9 | 16.1 | 0.15 | 0.51 | 0.25 | 32 | 1062.6 |
| 20260903232017 | 18 | 73 | 12.9 | 16.1 | 0.15 | 0.51 | 0.23 | 32 | 1063.2 |
| 20260903231037 | 18 | 76 | 12.9 | 14.5 | 0.15 | 0.51 | 0.20 | 33 | 1063.8 |
| 20260903230017 | 18 | 79 | 12.9 | 14.5 | 0.18 | 0.51 | 0.18 | 33 | 1064.5 |
| 20260903225037 | 18 | 83 | 12.9 | 14.5 | 0.15 | 0.51 | 0.15 | 34 | 1065.1 |
| 20260903224017 | 19 | 86 | 12.9 | 14.5 | 0.13 | 0.51 | 0.13 | 34 | 1065.8 |
| 20260903223017 | 19 | 89 | 12.9 | 14.5 | 0.10 | 0.51 | 0.10 | 35 | 1066.4 |
| 20260903222018 | 15 | 158 | 1.6 | 3.2 | 0.00 | 0.53 | 0.00 | 94 | 1020.6 |
| 20260903221038 | 15 | 0.0 | 1.6 | 0.00 | 0.53 | 0.00 | 94 | 1020.8 | |
| 20260903220018 | 15 | 0.0 | 3.2 | 0.00 | 0.53 | 0.53 | 94 | 1020.7 | |
| 20260903215037 | 20 | 103 | 11.3 | 14.5 | 0.00 | 0.51 | 0.51 | 37 | 1069.2 |
| 20260903214017 | 20 | 107 | 11.3 | 12.9 | 0.00 | 0.51 | 0.51 | 38 | 1069.9 |
| 20260903213037 | 20 | 110 | 11.3 | 12.9 | 0.00 | 0.51 | 0.51 | 38 | 1070.6 |
| 20260903212017 | 15 | 0.0 | 1.6 | 0.00 | 0.53 | 0.53 | 93 | 1020.6 | |
| 20260903211017 | 15 | 0.0 | 0.0 | 0.00 | 0.53 | 0.53 | 94 | 1020.9 | |
| 20260903210017 | 15 | 0.0 | 0.0 | 0.00 | 0.53 | 0.53 | 94 | 1020.9 | |
| 20260903205018 | 15 | 0.0 | 0.0 | 0.00 | 0.53 | 0.53 | 94 | 1020.7 | |
| 20260903204037 | 15 | 0.0 | 0.0 | 0.00 | 0.53 | 0.53 | 93 | 1020.7 | |
| 20260903203017 | 21 | 133 | 9.7 | 12.9 | 0.00 | 0.51 | 0.51 | 42 | 1075.0 |
| 20260903202017 | 15 | 158 | 1.6 | 3.2 | 0.00 | 0.53 | 0.53 | 93 | 1020.6 |
| 20260903201017 | 15 | 158 | 3.2 | 6.4 | 0.00 | 0.53 | 0.53 | 93 | 1020.7 |
| 20260903200037 | 21 | 144 | 9.7 | 11.3 | 0.00 | 0.51 | 0.51 | 44 | 1077.3 |
| 20260903195017 | 21 | 148 | 9.7 | 11.3 | 0.00 | 0.51 | 0.51 | 45 | 1078.0 |
| 20260903194017 | 21 | 152 | 9.7 | 11.3 | 0.00 | 0.51 | 0.51 | 45 | 1078.8 |
| 20260903193017 | 20 | 156 | 9.7 | 11.3 | 0.00 | 0.51 | 0.51 | 46 | 1079.6 |
| 20260903192017 | 20 | 159 | 9.7 | 11.3 | 0.00 | 0.51 | 0.51 | 47 | 1080.3 |
| 20260903191016 | 20 | 163 | 8.0 | 11.3 | 0.00 | 0.51 | 0.51 | 47 | 1081.1 |
| 20260903190017 | 20 | 167 | 8.0 | 9.7 | 0.00 | 0.51 | 0.51 | 48 | 1081.9 |
| 20260903185017 | 20 | 171 | 8.0 | 9.7 | 0.00 | 0.51 | 0.51 | 49 | 1082.7 |
| 20260903184017 | 20 | 175 | 8.0 | 9.7 | 0.00 | 0.51 | 0.51 | 49 | 1083.4 |
| 20260903183017 | 19 | 179 | 8.0 | 9.7 | 0.00 | 0.51 | 0.51 | 50 | 1084.2 |
| 20260903182017 | 19 | 183 | 8.0 | 9.7 | 0.00 | 0.51 | 0.51 | 51 | 1085.0 |
| 20260903181017 | 18 | 187 | 8.0 | 9.7 | 0.00 | 0.51 | 0.51 | 51 | 1085.8 |
| 20260903180017 | 18 | 191 | 8.0 | 9.7 | 0.00 | 0.51 | 0.51 | 52 | 1086.5 |
| 20260903175017 | 18 | 195 | 8.0 | 9.7 | 0.00 | 0.51 | 0.51 | 52 | 1087.3 |
| 20260903174017 | 18 | 199 | 6.4 | 8.0 | 0.00 | 0.51 | 0.51 | 53 | 1088.1 |
| 20260903173017 | 17 | 203 | 6.4 | 8.0 | 0.00 | 0.51 | 0.51 | 54 | 1088.9 |
| 20260903172017 | 17 | 206 | 6.4 | 8.0 | 0.00 | 0.51 | 0.51 | 54 | 1089.6 |
| 20260903171018 | 16 | 90 | 1.6 | 4.8 | 0.05 | 0.53 | 0.53 | 92 | 1019.2 |
| 20260903170017 | 16 | 214 | 6.4 | 8.0 | 0.00 | 0.51 | 0.51 | 56 | 1091.2 |
| 20260903165017 | 16 | 218 | 6.4 | 8.0 | 0.00 | 0.51 | 0.51 | 56 | 1091.9 |